Simultaneous Nadir Overpasses (SNOs) Predictions

Prediction of SNOs between GOES-16 and METOP-B Satellite Orbit:

Table of predicted SNOs for the next 14.0 days since TLE Epoch: 8/31/2024
Index Date Time (GOES-16) GOES-16 Lat,Lon METOP-B Lat,Lon Distance(km) Time Diff (sec)
1 08/31/2024 14:19:20 -0.04, -75.21 -0.17, -74.68 60.34 80
2 09/02/2024 02:35:41 0.04, -75.20 -0.87, -79.29 465.42 80
3 09/03/2024 02:17:41 0.04, -75.21 0.24, -74.30 103.84 80
4 09/04/2024 14:33:53 -0.05, -75.24 0.75, -78.88 414.68 80
5 09/05/2024 14:15:54 -0.04, -75.25 -0.36, -73.89 155.07 80
6 09/07/2024 02:32:14 0.04, -75.26 -0.65, -78.51 369.20 80
7 09/08/2024 02:14:14 0.04, -75.27 0.41, -73.51 200.85 80
8 09/09/2024 14:30:26 -0.04, -75.31 0.55, -78.09 316.79 80
9 09/10/2024 14:12:26 -0.04, -75.32 -0.52, -73.09 253.38 80
10 09/12/2024 02:28:46 0.03, -75.33 -0.47, -77.71 270.39 80
11 09/13/2024 02:10:45 0.03, -75.35 0.61, -72.71 299.94 80
